Simultaneous Nadir Overpasses (SNOs) Predictions

Prediction of SNOs between NOAA-20 and METOP-B Satellite Orbit:

Table of predicted SNOs for the next 14.0 days since TLE Epoch: 10/26/2024
Index Date (NOAA-20) Time (NOAA-20) Lat,Lon (NOAA-20) SZA (NOAA-20 ) Date (METOP-B) Time (METOP-B) Lat,Lon (METOP-B) SZA (METOP-B ) Distance(km) Time Diff (sec)
1 11/02/2024 07:04:14 74.24, 62.14 89.21 11/02/2024 07:05:20 74.21, 65.11 89.10 90.00 66
2 11/02/2024 07:54:56 -74.16,-130.34 90.87 11/02/2024 07:56:04 -74.11,-127.82 91.00 76.83 68
3 11/02/2024 08:45:38 73.95, 37.48 88.92 11/02/2024 08:46:48 73.88, 38.96 88.80 46.27 70
4 11/02/2024 09:36:20 -73.87,-155.01 91.16 11/02/2024 09:37:31 -73.82,-153.84 91.24 36.38 71
5 11/02/2024 10:27:01 73.60, 12.92 88.58 11/02/2024 10:28:15 73.59, 12.96 88.56 1.78 74
6 11/02/2024 11:17:44 -73.57,-179.69 91.45 11/02/2024 11:18:57 -73.59,-179.72 91.44 1.89 73
7 11/02/2024 12:08:30 73.56, -12.35 88.55 11/02/2024 12:09:37 73.56, -12.46 88.55 3.41 67
8 11/02/2024 12:59:14 -73.58, 154.92 91.42 11/02/2024 13:00:18 -73.60, 154.97 91.41 3.14 64
9 11/02/2024 13:50:00 73.57, -37.74 88.58 11/02/2024 13:50:58 73.57, -37.76 88.58 1.16 58
10 11/02/2024 14:40:44 -73.59, 129.53 91.39 11/02/2024 14:41:40 -73.57, 129.55 91.42 1.90 56
11 11/02/2024 15:31:30 73.57, -63.13 88.61 11/02/2024 15:32:19 73.59, -63.07 88.62 2.52 49
12 11/02/2024 16:22:14 -73.59, 104.15 91.37 11/02/2024 16:23:01 -73.58, 104.25 91.38 3.25 47
13 11/02/2024 17:13:00 73.58, -88.51 88.64 11/02/2024 17:13:41 73.55, -88.49 88.61 2.79 41
14 11/02/2024 18:03:43 -73.55, 78.87 91.39 11/02/2024 18:04:23 -73.55, 78.83 91.39 1.49 40
15 11/02/2024 18:54:30 73.58,-113.90 88.66 11/02/2024 18:55:02 73.57,-113.80 88.64 3.66 32
16 11/02/2024 19:45:13 -73.55, 53.49 91.36 11/02/2024 19:45:44 -73.56, 53.52 91.36 1.70 31
17 11/02/2024 20:35:59 73.54,-139.17 88.64 11/02/2024 20:36:24 73.53,-139.22 88.63 1.53 25
18 11/02/2024 21:26:43 -73.56, 28.10 91.34 11/02/2024 21:27:06 -73.53, 28.10 91.37 3.21 23
19 11/02/2024 22:17:29 73.54,-164.56 88.67 11/02/2024 22:17:45 73.55,-164.52 88.67 1.23 16
20 11/02/2024 23:08:13 -73.56, 2.71 91.31 11/02/2024 23:08:27 -73.54, 2.80 91.33 3.41 14
21 11/02/2024 23:58:58 73.50, 170.17 88.64 11/02/2024 23:59:07 73.51, 170.06 88.65 3.71 9
22 11/03/2024 00:49:42 -73.52, -22.56 91.33 11/03/2024 00:49:49 -73.51, -22.62 91.34 2.29 7
23 11/03/2024 01:40:28 73.50, 144.78 88.67 11/03/2024 01:40:28 73.53, 144.75 88.69 2.55 0
24 11/03/2024 02:31:12 -73.52, -47.95 91.30 11/03/2024 02:31:10 -73.52, -47.93 91.31 0.59 2
25 11/03/2024 03:21:58 73.51, 119.39 88.70 11/03/2024 03:21:50 73.49, 119.33 88.68 2.90 8
26 11/03/2024 04:12:42 -73.53, -73.33 91.28 11/03/2024 04:12:31 -73.54, -73.23 91.27 3.26 11
27 11/03/2024 05:03:28 73.52, 94.01 88.72 11/03/2024 05:03:11 73.50, 94.03 88.71 1.33 17
28 11/03/2024 05:54:11 -73.49, -98.61 91.30 11/03/2024 05:53:53 -73.50, -98.65 91.28 2.41 18
29 11/03/2024 06:44:58 73.52, 68.62 88.75 11/03/2024 06:44:32 73.52, 68.72 88.75 3.21 26
30 11/03/2024 07:35:41 -73.49,-123.99 91.27 11/03/2024 07:35:14 -73.52,-123.96 91.25 3.13 27
31 11/03/2024 08:26:27 73.48, 43.35 88.73 11/03/2024 08:25:54 73.48, 43.30 88.74 1.64 33
32 11/03/2024 09:17:11 -73.50,-149.38 91.25 11/03/2024 09:16:36 -73.48,-149.38 91.26 1.60 35
33 11/03/2024 10:07:57 73.48, 17.96 88.75 11/03/2024 10:07:15 73.50, 18.00 88.77 2.18 42
34 11/03/2024 10:58:41 -73.50,-174.77 91.22 11/03/2024 10:57:57 -73.50,-174.68 91.22 2.70 44
35 11/03/2024 11:49:27 73.49, -7.43 88.78 11/03/2024 11:48:37 73.46, -7.42 88.76 2.73 50
36 11/03/2024 12:40:10 -73.46, 159.96 91.24 11/03/2024 12:39:19 -73.46, 159.90 91.23 2.00 51
37 11/03/2024 13:30:57 73.49, -32.81 88.81 11/03/2024 13:29:58 73.48, -32.73 88.80 3.20 59
38 11/03/2024 14:21:40 -73.46, 134.57 91.22 11/03/2024 14:20:40 -73.48, 134.59 91.20 1.55 60
39 11/03/2024 15:12:26 73.45, -58.09 88.78 11/03/2024 15:11:20 73.44, -58.15 88.79 2.06 66
40 11/03/2024 16:03:10 -73.47, 109.19 91.19 11/03/2024 16:02:02 -73.44, 109.17 91.21 3.15 68
41 11/03/2024 16:53:56 73.45, -83.48 88.81 11/03/2024 16:52:41 73.46, -83.46 88.82 0.69 75
42 11/03/2024 17:44:38 -73.37, 84.02 91.27 11/03/2024 17:43:24 -73.40, 83.75 91.22 9.22 74
43 11/03/2024 18:35:20 73.16,-108.19 88.52 11/03/2024 18:34:09 73.12,-109.54 88.53 43.61 71
44 11/03/2024 19:26:02 -73.08, 59.30 91.56 11/03/2024 19:24:52 -73.07, 57.68 91.51 52.42 70
45 11/03/2024 20:16:43 72.81,-132.82 88.18 11/03/2024 20:15:36 72.83,-135.48 88.28 87.46 67
46 11/03/2024 21:07:25 -72.78, 34.55 91.85 11/03/2024 21:06:18 -72.78, 31.74 91.76 92.69 67



Historial Predications of SNOs between NOAA-20 and METOP-B
